date,time,SUV Intensity [MED/Hr],UV Index,Daily total [MED],Since Last [MED]
21/08/2023,00:00:20,0.001,0.0,0.0,0.0
21/08/2023,00:01:43,0.000,0.0,0.0,0.0
21/08/2023,00:02:20,-0.000,0.0,0.0,0.0
21/08/2023,00:03:20,0.000,0.0,0.0,0.0
21/08/2023,00:04:19,-0.000,0.0,0.0,0.0
21/08/2023,00:05:19,0.000,0.0,0.0,0.0
21/08/2023,00:06:20,0.001,0.0,0.0,0.0
21/08/2023,00:07:20,0.000,0.0,0.0,0.0
21/08/2023,00:08:21,0.000,0.0,0.0,0.0
21/08/2023,00:09:21,-0.000,0.0,0.0,0.0
21/08/2023,00:10:20,0.000,0.0,0.0,0.0
21/08/2023,00:11:18,0.000,0.0,0.0,0.0
21/08/2023,00:12:18,0.000,0.0,0.0,0.0
21/08/2023,00:13:21,0.000,0.0,0.0,0.0
21/08/2023,00:14:20,0.000,0.0,0.0,0.0
21/08/2023,00:15:20,0.000,0.0,0.0,0.0
21/08/2023,00:16:20,0.000,0.0,0.0,0.0
21/08/2023,00:17:21,0.000,0.0,0.0,0.0
21/08/2023,00:18:21,0.000,0.0,0.0,0.0
21/08/2023,00:19:20,-0.000,0.0,0.0,0.0
21/08/2023,00:20:20,0.000,0.0,0.0,0.0
21/08/2023,00:21:18,0.000,0.0,0.0,0.0
21/08/2023,00:22:19,0.000,0.0,0.0,0.0
21/08/2023,00:23:21,0.000,0.0,0.0,0.0
21/08/2023,00:24:20,0.000,0.0,0.0,0.0
21/08/2023,00:25:20,0.000,0.0,0.0,0.0
21/08/2023,00:26:20,-0.001,0.0,0.0,0.0
21/08/2023,00:27:21,-0.000,0.0,0.0,0.0
21/08/2023,00:28:21,0.000,0.0,0.0,0.0
21/08/2023,00:29:21,-0.000,0.0,0.0,0.0
21/08/2023,00:30:20,0.000,0.0,0.0,0.0
21/08/2023,00:31:21,0.000,0.0,0.0,0.0
21/08/2023,00:32:21,-0.000,0.0,0.0,0.0
21/08/2023,00:33:21,0.000,0.0,0.0,0.0
21/08/2023,00:34:20,0.000,0.0,0.0,0.0
21/08/2023,00:35:21,-0.000,0.0,0.0,0.0
21/08/2023,00:36:21,0.000,0.0,0.0,0.0
21/08/2023,00:37:20,0.000,0.0,0.0,0.0
21/08/2023,00:38:21,0.000,0.0,0.0,0.0
21/08/2023,00:39:21,0.000,0.0,0.0,0.0
21/08/2023,00:40:21,0.000,0.0,0.0,0.0
21/08/2023,00:41:20,-0.000,0.0,0.0,0.0
21/08/2023,00:42:21,0.000,0.0,0.0,0.0
21/08/2023,00:43:21,0.000,0.0,0.0,0.0
21/08/2023,00:44:20,0.000,0.0,0.0,0.0
21/08/2023,00:45:21,0.000,0.0,0.0,0.0
21/08/2023,00:46:21,0.000,0.0,0.0,0.0
21/08/2023,00:47:20,0.000,0.0,0.0,0.0
21/08/2023,00:48:20,0.000,0.0,0.0,0.0
21/08/2023,00:49:18,0.000,0.0,0.0,0.0
21/08/2023,00:50:19,0.000,0.0,0.0,0.0
21/08/2023,00:51:21,-0.000,0.0,0.0,0.0
21/08/2023,00:52:20,0.000,0.0,0.0,0.0
21/08/2023,00:53:21,-0.000,0.0,0.0,0.0
21/08/2023,00:54:20,0.000,0.0,0.0,0.0
21/08/2023,00:55:21,0.000,0.0,0.0,0.0
21/08/2023,00:56:21,0.000,0.0,0.0,0.0
21/08/2023,00:57:20,-0.000,0.0,0.0,0.0
21/08/2023,00:58:20,0.000,0.0,0.0,0.0
21/08/2023,00:59:20,0.000,0.0,0.0,0.0
21/08/2023,01:00:21,0.000,0.0,0.0,0.0
21/08/2023,01:01:20,0.000,0.0,0.0,0.0
21/08/2023,01:02:20,0.000,0.0,0.0,0.0
21/08/2023,01:03:21,0.001,0.0,0.0,0.0
21/08/2023,01:04:21,0.000,0.0,0.0,0.0
21/08/2023,01:05:20,0.001,0.0,0.0,0.0
21/08/2023,01:06:21,0.001,0.0,0.0,0.0
21/08/2023,01:07:21,0.000,0.0,0.0,0.0
21/08/2023,01:08:20,0.000,0.0,0.0,0.0
21/08/2023,01:09:20,0.000,0.0,0.0,0.0
21/08/2023,01:10:19,0.000,0.0,0.0,0.0
21/08/2023,01:11:19,0.000,0.0,0.0,0.0
21/08/2023,01:12:20,0.001,0.0,0.0,0.0
21/08/2023,01:13:21,0.000,0.0,0.0,0.0
21/08/2023,01:14:20,0.000,0.0,0.0,0.0
21/08/2023,01:15:20,0.000,0.0,0.0,0.0
21/08/2023,01:16:20,0.001,0.0,0.0,0.0
21/08/2023,01:17:21,0.000,0.0,0.0,0.0
21/08/2023,01:18:21,0.000,0.0,0.0,0.0
21/08/2023,01:19:21,0.000,0.0,0.0,0.0
21/08/2023,01:20:20,-0.000,0.0,0.0,0.0
21/08/2023,01:21:21,0.000,0.0,0.0,0.0
21/08/2023,01:22:21,0.000,0.0,0.0,0.0
21/08/2023,01:23:21,0.000,0.0,0.0,0.0
21/08/2023,01:24:21,0.000,0.0,0.0,0.0
21/08/2023,01:25:21,0.000,0.0,0.0,0.0
21/08/2023,01:26:19,-0.000,0.0,0.0,0.0
21/08/2023,01:27:18,0.000,0.0,0.0,0.0
21/08/2023,01:28:20,0.000,0.0,0.0,0.0
21/08/2023,01:29:20,0.000,0.0,0.0,0.0
21/08/2023,01:30:21,0.000,0.0,0.0,0.0
21/08/2023,01:31:21,0.000,0.0,0.0,0.0
21/08/2023,01:32:20,0.000,0.0,0.0,0.0
21/08/2023,01:33:21,-0.000,0.0,0.0,0.0
21/08/2023,01:34:20,0.000,0.0,0.0,0.0
21/08/2023,01:35:20,0.000,0.0,0.0,0.0
21/08/2023,01:36:21,0.000,0.0,0.0,0.0
21/08/2023,01:37:21,0.000,0.0,0.0,0.0
21/08/2023,01:38:20,0.001,0.0,0.0,0.0
21/08/2023,01:39:18,-0.000,0.0,0.0,0.0
21/08/2023,01:40:19,-0.000,0.0,0.0,0.0
21/08/2023,01:41:21,0.000,0.0,0.0,0.0
21/08/2023,01:42:21,0.001,0.0,0.0,0.0
21/08/2023,01:43:20,0.000,0.0,0.0,0.0
21/08/2023,01:44:20,0.001,0.0,0.0,0.0
21/08/2023,01:45:21,0.000,0.0,0.0,0.0
21/08/2023,01:46:21,0.001,0.0,0.0,0.0
21/08/2023,01:47:19,0.000,0.0,0.0,0.0
21/08/2023,01:48:19,-0.000,0.0,0.0,0.0
21/08/2023,01:49:20,-0.000,0.0,0.0,0.0
21/08/2023,01:50:21,0.000,0.0,0.0,0.0
21/08/2023,01:51:21,0.001,0.0,0.0,0.0
21/08/2023,01:52:21,0.000,0.0,0.0,0.0
21/08/2023,01:53:21,0.000,0.0,0.0,0.0
21/08/2023,01:54:21,0.000,0.0,0.0,0.0
21/08/2023,01:55:21,-0.000,0.0,0.0,0.0
21/08/2023,01:56:19,0.000,0.0,0.0,0.0
21/08/2023,01:57:19,0.000,0.0,0.0,0.0
21/08/2023,01:58:21,0.000,0.0,0.0,0.0
21/08/2023,01:59:21,0.001,0.0,0.0,0.0
21/08/2023,02:00:21,0.000,0.0,0.0,0.0
21/08/2023,02:01:21,-0.000,0.0,0.0,0.0
21/08/2023,02:02:21,0.001,0.0,0.0,0.0
21/08/2023,02:03:21,0.000,0.0,0.0,0.0
21/08/2023,02:04:21,-0.000,0.0,0.0,0.0
21/08/2023,02:05:20,0.000,0.0,0.0,0.0
21/08/2023,02:06:21,0.000,0.0,0.0,0.0
21/08/2023,02:07:20,0.000,0.0,0.0,0.0
21/08/2023,02:08:20,0.001,0.0,0.0,0.0
21/08/2023,02:09:21,0.000,0.0,0.0,0.0
21/08/2023,02:10:21,0.001,0.0,0.0,0.0
21/08/2023,02:11:21,0.000,0.0,0.0,0.0
21/08/2023,02:12:21,0.001,0.0,0.0,0.0
21/08/2023,02:13:21,0.000,0.0,0.0,0.0
21/08/2023,02:14:18,0.000,0.0,0.0,0.0
21/08/2023,02:15:19,0.001,0.0,0.0,0.0
21/08/2023,02:16:21,0.002,0.0,0.0,0.0
21/08/2023,02:17:20,0.001,0.0,0.0,0.0
21/08/2023,02:18:20,0.000,0.0,0.0,0.0
21/08/2023,02:19:21,0.001,0.0,0.0,0.0
21/08/2023,02:20:21,0.000,0.0,0.0,0.0
21/08/2023,02:21:21,0.001,0.0,0.0,0.0
21/08/2023,02:22:20,0.000,0.0,0.0,0.0
21/08/2023,02:23:21,0.000,0.0,0.0,0.0
21/08/2023,02:24:21,0.000,0.0,0.0,0.0
21/08/2023,02:25:21,0.000,0.0,0.0,0.0
21/08/2023,02:26:20,0.000,0.0,0.0,0.0
21/08/2023,02:27:21,-0.000,0.0,0.0,0.0
21/08/2023,02:28:20,0.001,0.0,0.0,0.0
21/08/2023,02:29:20,0.000,0.0,0.0,0.0
21/08/2023,02:30:21,0.001,0.0,0.0,0.0
21/08/2023,02:31:21,0.001,0.0,0.0,0.0
21/08/2023,02:32:21,-0.000,0.0,0.0,0.0
21/08/2023,02:33:20,0.001,0.0,0.0,0.0
21/08/2023,02:34:21,0.001,0.0,0.0,0.0
21/08/2023,02:35:19,0.000,0.0,0.0,0.0
21/08/2023,02:36:18,-0.000,0.0,0.0,0.0
21/08/2023,02:37:21,0.000,0.0,0.0,0.0
21/08/2023,02:38:21,0.000,0.0,0.0,0.0
21/08/2023,02:39:21,0.000,0.0,0.0,0.0
21/08/2023,02:40:21,0.000,0.0,0.0,0.0
21/08/2023,02:41:21,0.000,0.0,0.0,0.0
21/08/2023,02:42:24,-0.000,0.0,0.0,0.0
21/08/2023,02:43:22,0.000,0.0,0.0,0.0
21/08/2023,02:44:20,0.000,0.0,0.0,0.0
21/08/2023,02:45:21,0.000,0.0,0.0,0.0
21/08/2023,02:46:21,0.000,0.0,0.0,0.0
21/08/2023,02:47:21,0.000,0.0,0.0,0.0
21/08/2023,02:48:21,0.000,0.0,0.0,0.0
21/08/2023,02:49:20,0.000,0.0,0.0,0.0
21/08/2023,02:50:21,-0.000,0.0,0.0,0.0
21/08/2023,02:51:21,0.000,0.0,0.0,0.0
21/08/2023,02:52:21,0.001,0.0,0.0,0.0
21/08/2023,02:53:21,-0.000,0.0,0.0,0.0
21/08/2023,02:54:21,-0.000,0.0,0.0,0.0
21/08/2023,02:55:21,0.000,0.0,0.0,0.0
21/08/2023,02:56:21,0.000,0.0,0.0,0.0
21/08/2023,02:57:21,0.000,0.0,0.0,0.0
21/08/2023,02:58:21,0.000,0.0,0.0,0.0
21/08/2023,02:59:20,0.000,0.0,0.0,0.0
21/08/2023,03:00:21,0.000,0.0,0.0,0.0
21/08/2023,03:01:21,-0.000,0.0,0.0,0.0
21/08/2023,03:02:21,0.000,0.0,0.0,0.0
21/08/2023,03:03:20,-0.000,0.0,0.0,0.0
21/08/2023,03:04:20,-0.000,0.0,0.0,0.0
21/08/2023,03:05:21,0.000,0.0,0.0,0.0
21/08/2023,03:06:21,0.000,0.0,0.0,0.0
21/08/2023,03:07:20,-0.000,0.0,0.0,0.0
21/08/2023,03:08:21,-0.001,0.0,0.0,0.0
21/08/2023,03:09:21,0.000,0.0,0.0,0.0
21/08/2023,03:10:21,0.000,0.0,0.0,0.0
21/08/2023,03:11:21,0.000,0.0,0.0,0.0
21/08/2023,03:12:21,0.000,0.0,0.0,0.0
21/08/2023,03:13:21,0.000,0.0,0.0,0.0
21/08/2023,03:14:20,-0.000,0.0,0.0,0.0
21/08/2023,03:15:21,-0.000,0.0,0.0,0.0
21/08/2023,03:16:21,0.000,0.0,0.0,0.0
21/08/2023,03:17:20,0.000,0.0,0.0,0.0
21/08/2023,03:18:18,-0.000,0.0,0.0,0.0
21/08/2023,03:19:19,0.001,0.0,0.0,0.0
21/08/2023,03:20:21,-0.000,0.0,0.0,0.0
21/08/2023,03:21:21,-0.000,0.0,0.0,0.0
21/08/2023,03:22:20,-0.000,0.0,0.0,0.0
21/08/2023,03:23:21,-0.000,0.0,0.0,0.0
21/08/2023,03:24:21,0.000,0.0,0.0,0.0
21/08/2023,03:25:20,0.000,0.0,0.0,0.0
21/08/2023,03:26:21,-0.000,0.0,0.0,0.0
21/08/2023,03:27:21,-0.001,0.0,0.0,0.0
21/08/2023,03:28:20,0.000,0.0,0.0,0.0
21/08/2023,03:29:21,0.001,0.0,0.0,0.0
21/08/2023,03:30:21,0.001,0.0,0.0,0.0
21/08/2023,03:31:21,-0.000,0.0,0.0,0.0
21/08/2023,03:32:21,-0.000,0.0,0.0,0.0
21/08/2023,03:33:21,0.000,0.0,0.0,0.0
21/08/2023,03:34:20,0.001,0.0,0.0,0.0
21/08/2023,03:35:20,0.000,0.0,0.0,0.0
21/08/2023,03:36:21,0.000,0.0,0.0,0.0
21/08/2023,03:37:21,0.000,0.0,0.0,0.0
21/08/2023,03:38:21,-0.000,0.0,0.0,0.0
21/08/2023,03:39:20,0.000,0.0,0.0,0.0
21/08/2023,03:40:21,0.000,0.0,0.0,0.0
21/08/2023,03:41:19,0.000,0.0,0.0,0.0
21/08/2023,03:42:19,-0.000,0.0,0.0,0.0
21/08/2023,03:43:21,0.000,0.0,0.0,0.0
21/08/2023,03:44:21,-0.000,0.0,0.0,0.0
21/08/2023,03:45:21,0.000,0.0,0.0,0.0
21/08/2023,03:46:18,0.000,0.0,0.0,0.0
21/08/2023,03:47:19,0.000,0.0,0.0,0.0
21/08/2023,03:48:21,0.000,0.0,0.0,0.0
21/08/2023,03:49:21,0.000,0.0,0.0,0.0
21/08/2023,03:50:19,0.000,0.0,0.0,0.0
21/08/2023,03:51:19,-0.000,0.0,0.0,0.0
21/08/2023,03:52:21,0.000,0.0,0.0,0.0
21/08/2023,03:53:21,0.000,0.0,0.0,0.0
21/08/2023,03:54:20,-0.000,0.0,0.0,0.0
21/08/2023,03:55:21,-0.000,0.0,0.0,0.0
21/08/2023,03:56:20,0.001,0.0,0.0,0.0
21/08/2023,03:57:21,0.000,0.0,0.0,0.0
21/08/2023,03:58:21,0.000,0.0,0.0,0.0
21/08/2023,03:59:21,0.000,0.0,0.0,0.0
21/08/2023,04:00:21,0.000,0.0,0.0,0.0
21/08/2023,04:01:21,0.000,0.0,0.0,0.0
21/08/2023,04:02:21,0.000,0.0,0.0,0.0
21/08/2023,04:03:21,0.000,0.0,0.0,0.0
21/08/2023,04:04:21,0.001,0.0,0.0,0.0
21/08/2023,04:05:21,-0.000,0.0,0.0,0.0
21/08/2023,04:06:21,0.000,0.0,0.0,0.0
21/08/2023,04:07:20,-0.000,0.0,0.0,0.0
21/08/2023,04:08:20,0.000,0.0,0.0,0.0
21/08/2023,04:09:21,-0.000,0.0,0.0,0.0
21/08/2023,04:10:21,0.000,0.0,0.0,0.0
21/08/2023,04:11:22,0.000,0.0,0.0,0.0
21/08/2023,04:12:21,0.001,0.0,0.0,0.0
21/08/2023,04:13:21,0.000,0.0,0.0,0.0
21/08/2023,04:14:21,0.000,0.0,0.0,0.0
21/08/2023,04:15:20,-0.000,0.0,0.0,0.0
21/08/2023,04:16:21,0.000,0.0,0.0,0.0
21/08/2023,04:17:21,-0.001,0.0,0.0,0.0
21/08/2023,04:18:21,0.000,0.0,0.0,0.0
21/08/2023,04:19:21,0.000,0.0,0.0,0.0
21/08/2023,04:20:21,-0.000,0.0,0.0,0.0
21/08/2023,04:21:21,0.000,0.0,0.0,0.0
21/08/2023,04:22:21,0.000,0.0,0.0,0.0
21/08/2023,04:23:21,-0.000,0.0,0.0,0.0
21/08/2023,04:24:21,0.001,0.0,0.0,0.0
21/08/2023,04:25:21,-0.001,0.0,0.0,0.0
21/08/2023,04:26:21,0.000,0.0,0.0,0.0
21/08/2023,04:27:21,0.000,0.0,0.0,0.0
21/08/2023,04:28:21,0.000,0.0,0.0,0.0
21/08/2023,04:29:21,0.000,0.0,0.0,0.0
21/08/2023,04:30:21,-0.000,0.0,0.0,0.0
21/08/2023,04:31:21,0.000,0.0,0.0,0.0
21/08/2023,04:32:19,0.000,0.0,0.0,0.0
21/08/2023,04:33:19,0.000,0.0,0.0,0.0
21/08/2023,04:34:21,0.000,0.0,0.0,0.0
21/08/2023,04:35:50,0.001,0.0,0.0,0.0
21/08/2023,04:37:22,-0.000,0.0,0.0,0.0
21/08/2023,04:38:21,0.000,0.0,0.0,0.0
21/08/2023,04:39:20,0.000,0.0,0.0,0.0
21/08/2023,04:40:19,-0.000,0.0,0.0,0.0
21/08/2023,04:41:19,0.000,0.0,0.0,0.0
21/08/2023,04:42:21,0.001,0.0,0.0,0.0
21/08/2023,04:43:21,0.001,0.0,0.0,0.0
21/08/2023,04:44:21,0.000,0.0,0.0,0.0
21/08/2023,04:45:21,0.000,0.0,0.0,0.0
21/08/2023,04:46:21,0.000,0.0,0.0,0.0
21/08/2023,04:47:21,0.001,0.0,0.0,0.0
21/08/2023,04:48:21,-0.000,0.0,0.0,0.0
21/08/2023,04:49:21,0.000,0.0,0.0,0.0
21/08/2023,04:50:21,0.001,0.0,0.0,0.0
21/08/2023,04:51:21,0.000,0.0,0.0,0.0
21/08/2023,04:52:21,0.002,0.0,0.0,0.0
21/08/2023,04:53:21,0.001,0.0,0.0,0.0
21/08/2023,04:54:21,0.001,0.0,0.0,0.0
21/08/2023,04:55:21,0.002,0.0,0.0,0.0
21/08/2023,04:56:21,-0.000,0.0,0.0,0.0
21/08/2023,04:57:21,0.001,0.0,0.0,0.0
21/08/2023,04:58:19,0.001,0.0,0.0,0.0
21/08/2023,04:59:19,0.002,0.0,0.0,0.0
21/08/2023,05:00:21,0.001,0.0,0.0,0.0
21/08/2023,05:01:21,0.001,0.0,0.0,0.0
21/08/2023,05:02:21,0.000,0.0,0.0,0.0
21/08/2023,05:03:21,0.002,0.0,0.0,0.0
21/08/2023,05:04:21,0.003,0.0,0.0,0.0
21/08/2023,05:05:21,0.001,0.0,0.0,0.0
21/08/2023,05:06:21,0.002,0.0,0.0,0.0
21/08/2023,05:07:21,0.002,0.0,0.0,0.0
21/08/2023,05:08:21,0.002,0.0,0.0,0.0
21/08/2023,05:09:21,0.003,0.0,0.0,0.0
21/08/2023,05:10:21,0.003,0.0,0.0,0.0
21/08/2023,05:11:22,0.003,0.0,0.0,0.0
21/08/2023,05:12:21,0.003,0.0,0.0,0.0
21/08/2023,05:13:21,0.004,0.0,0.0,0.0
21/08/2023,05:14:21,0.004,0.0,0.0,0.0
21/08/2023,05:15:21,0.004,0.0,0.0,0.0
21/08/2023,05:16:21,0.004,0.0,0.0,0.0
21/08/2023,05:17:21,0.005,0.0,0.0,0.0
21/08/2023,05:18:21,0.005,0.0,0.0,0.0
21/08/2023,05:19:21,0.006,0.0,0.0,0.0
21/08/2023,05:20:19,0.007,0.0,0.0,0.0
21/08/2023,05:21:19,0.007,0.0,0.0,0.0
21/08/2023,05:22:21,0.006,0.0,0.0,0.0
21/08/2023,05:23:21,0.006,0.0,0.0,0.0
21/08/2023,05:24:21,0.006,0.0,0.0,0.0
21/08/2023,05:25:19,0.007,0.0,0.0,0.0
21/08/2023,05:26:19,0.007,0.0,0.001,0.001
21/08/2023,05:27:21,0.007,0.0,0.001,0.0
21/08/2023,05:28:21,0.008,0.0,0.001,0.0
21/08/2023,05:29:21,0.009,0.0,0.001,0.0
21/08/2023,05:30:21,0.008,0.0,0.001,0.0
21/08/2023,05:31:21,0.009,0.0,0.001,0.0
21/08/2023,05:32:21,0.010,0.0,0.001,0.0
21/08/2023,05:33:21,0.011,0.0,0.002,0.001
21/08/2023,05:34:21,0.013,0.0,0.002,0.0
21/08/2023,05:35:22,0.013,0.0,0.002,0.0
21/08/2023,05:36:21,0.016,0.0,0.002,0.0
21/08/2023,05:37:21,0.017,0.0,0.003,0.001
21/08/2023,05:38:21,0.018,0.0,0.003,0.0
21/08/2023,05:39:22,0.019,0.0,0.003,0.0
21/08/2023,05:40:21,0.020,0.0,0.004,0.001
21/08/2023,05:41:21,0.019,0.0,0.004,0.0
21/08/2023,05:42:21,0.020,0.0,0.004,0.0
21/08/2023,05:43:21,0.021,0.0,0.005,0.001
21/08/2023,05:44:21,0.021,0.0,0.005,0.0
21/08/2023,05:45:21,0.020,0.0,0.005,0.0
21/08/2023,05:46:21,0.018,0.0,0.006,0.001
21/08/2023,05:47:21,0.018,0.0,0.006,0.0
21/08/2023,05:48:19,0.019,0.0,0.006,0.0
21/08/2023,05:49:19,0.019,0.0,0.006,0.0
21/08/2023,05:50:21,0.020,0.0,0.007,0.001
21/08/2023,05:51:21,0.020,0.0,0.007,0.0
21/08/2023,05:52:21,0.021,0.0,0.007,0.0
21/08/2023,05:53:21,0.022,0.0,0.008,0.001
21/08/2023,05:54:21,0.021,0.0,0.008,0.0
21/08/2023,05:55:19,0.022,0.0,0.009,0.001
21/08/2023,05:56:19,0.024,0.0,0.009,0.0
21/08/2023,05:57:21,0.025,0.0,0.009,0.0
21/08/2023,05:58:21,0.025,0.0,0.01,0.001
21/08/2023,05:59:21,0.027,0.0,0.01,0.0
21/08/2023,06:00:21,0.026,0.0,0.011,0.001
21/08/2023,06:01:21,0.026,0.0,0.011,0.0
21/08/2023,06:02:21,0.027,0.0,0.012,0.001
21/08/2023,06:03:22,0.029,0.0,0.012,0.0
21/08/2023,06:04:21,0.030,0.0,0.012,0.0
21/08/2023,06:05:21,0.032,0.0,0.013,0.001
21/08/2023,06:06:22,0.034,0.0,0.014,0.001
21/08/2023,06:07:21,0.036,0.0,0.014,0.0
21/08/2023,06:08:21,0.038,0.0,0.015,0.001
21/08/2023,06:09:21,0.037,0.0,0.015,0.0
21/08/2023,06:10:20,0.039,0.0,0.016,0.001
21/08/2023,06:11:19,0.040,0.0,0.017,0.001
21/08/2023,06:12:21,0.041,0.0,0.017,0.0
21/08/2023,06:13:21,0.042,0.0,0.018,0.001
21/08/2023,06:14:21,0.043,0.0,0.019,0.001
21/08/2023,06:15:22,0.046,0.0,0.019,0.0
21/08/2023,06:16:19,0.046,0.0,0.02,0.001
21/08/2023,06:17:19,0.048,0.0,0.021,0.001
21/08/2023,06:18:21,0.048,0.0,0.022,0.001
21/08/2023,06:19:22,0.048,0.0,0.023,0.001
21/08/2023,06:20:21,0.047,0.0,0.023,0.0
21/08/2023,06:21:21,0.050,0.0,0.024,0.001
21/08/2023,06:22:21,0.051,0.0,0.025,0.001
21/08/2023,06:23:22,0.052,0.0,0.026,0.001
21/08/2023,06:24:21,0.052,0.0,0.027,0.001
21/08/2023,06:25:21,0.050,0.0,0.028,0.001
21/08/2023,06:26:21,0.050,0.0,0.029,0.001
21/08/2023,06:27:20,0.049,0.0,0.029,0.0
21/08/2023,06:28:19,0.051,0.0,0.03,0.001
21/08/2023,06:29:21,0.053,0.0,0.031,0.001
21/08/2023,06:30:21,0.054,0.0,0.032,0.001
21/08/2023,06:31:21,0.054,0.0,0.033,0.001
21/08/2023,06:32:21,0.055,0.0,0.034,0.001
21/08/2023,06:33:19,0.057,0.0,0.035,0.001
21/08/2023,06:34:19,0.058,0.0,0.036,0.001
21/08/2023,06:35:22,0.061,0.0,0.037,0.001
21/08/2023,06:36:21,0.061,0.0,0.038,0.001
21/08/2023,06:37:22,0.061,0.0,0.039,0.001
21/08/2023,06:38:21,0.061,0.0,0.04,0.001
21/08/2023,06:39:21,0.062,0.0,0.041,0.001
21/08/2023,06:40:21,0.063,0.0,0.042,0.001
21/08/2023,06:41:22,0.067,0.0,0.043,0.001
21/08/2023,06:42:21,0.071,0.0,0.044,0.001
21/08/2023,06:43:21,0.075,0.0,0.045,0.001
21/08/2023,06:44:22,0.076,0.0,0.047,0.002
21/08/2023,06:45:21,0.076,0.0,0.048,0.001
21/08/2023,06:46:21,0.080,0.0,0.049,0.001
21/08/2023,06:47:21,0.083,0.0,0.05,0.001
21/08/2023,06:48:21,0.086,0.0,0.052,0.002
21/08/2023,06:49:22,0.086,0.0,0.053,0.001
21/08/2023,06:50:21,0.088,0.0,0.055,0.002
21/08/2023,06:51:21,0.092,0.0,0.056,0.001
21/08/2023,06:52:22,0.092,0.0,0.058,0.002
21/08/2023,06:53:21,0.093,0.0,0.059,0.001
21/08/2023,06:54:21,0.097,0.0,0.061,0.002
21/08/2023,06:55:21,0.101,0.0,0.062,0.001
21/08/2023,06:56:21,0.104,0.0,0.064,0.002
21/08/2023,06:57:22,0.109,0.0,0.066,0.002
21/08/2023,06:58:21,0.113,0.0,0.068,0.002
21/08/2023,06:59:22,0.117,0.0,0.07,0.002
21/08/2023,07:00:21,0.124,0.0,0.072,0.002
21/08/2023,07:01:21,0.129,0.0,0.074,0.002
21/08/2023,07:02:21,0.134,0.0,0.076,0.002
21/08/2023,07:03:22,0.134,0.0,0.078,0.002
21/08/2023,07:04:21,0.136,0.0,0.08,0.002
21/08/2023,07:05:21,0.139,0.0,0.083,0.003
21/08/2023,07:06:21,0.144,0.0,0.085,0.002
21/08/2023,07:07:21,0.148,0.0,0.088,0.003
21/08/2023,07:08:22,0.152,0.0,0.09,0.002
21/08/2023,07:09:21,0.157,0.0,0.093,0.003
21/08/2023,07:10:21,0.165,0.0,0.095,0.002
21/08/2023,07:11:19,0.171,0.0,0.098,0.003
21/08/2023,07:12:20,0.179,0.0,0.101,0.003
21/08/2023,07:13:21,0.189,0.0,0.104,0.003
21/08/2023,07:14:21,0.202,0.0,0.107,0.003
21/08/2023,07:15:21,0.227,1.0,0.111,0.004
21/08/2023,07:16:21,0.219,1.0,0.115,0.004
21/08/2023,07:17:22,0.241,1.0,0.118,0.003
21/08/2023,07:18:21,0.236,1.0,0.122,0.004
21/08/2023,07:19:22,0.261,1.0,0.126,0.004
21/08/2023,07:20:22,0.246,1.0,0.131,0.005
21/08/2023,07:21:22,0.252,1.0,0.135,0.004
21/08/2023,07:22:22,0.270,1.0,0.139,0.004
21/08/2023,07:23:21,0.258,1.0,0.143,0.004
21/08/2023,07:24:21,0.263,1.0,0.148,0.005
21/08/2023,07:25:21,0.286,1.0,0.152,0.004
21/08/2023,07:26:22,0.291,1.0,0.157,0.005
21/08/2023,07:27:21,0.279,1.0,0.162,0.005
21/08/2023,07:28:21,0.269,1.0,0.166,0.004
21/08/2023,07:29:21,0.269,1.0,0.171,0.005
21/08/2023,07:30:21,0.276,1.0,0.175,0.004
21/08/2023,07:31:21,0.280,1.0,0.18,0.005
21/08/2023,07:32:22,0.304,1.0,0.185,0.005
21/08/2023,07:33:21,0.291,1.0,0.19,0.005
21/08/2023,07:34:21,0.296,1.0,0.195,0.005
21/08/2023,07:35:21,0.350,1.0,0.2,0.005
21/08/2023,07:36:21,0.359,1.0,0.206,0.006
21/08/2023,07:37:22,0.366,1.0,0.212,0.006
21/08/2023,07:38:21,0.369,1.0,0.218,0.006
21/08/2023,07:39:21,0.375,1.0,0.224,0.006
21/08/2023,07:40:21,0.380,1.0,0.231,0.007
21/08/2023,07:41:22,0.385,1.0,0.237,0.006
21/08/2023,07:42:21,0.392,1.0,0.243,0.006
21/08/2023,07:43:21,0.399,1.0,0.25,0.007
21/08/2023,07:44:21,0.405,1.0,0.257,0.007
21/08/2023,07:45:22,0.412,1.0,0.264,0.007
21/08/2023,07:46:22,0.356,1.0,0.27,0.006
21/08/2023,07:47:22,0.418,1.0,0.277,0.007
21/08/2023,07:48:21,0.421,1.0,0.284,0.007
21/08/2023,07:49:21,0.432,1.0,0.291,0.007
21/08/2023,07:50:22,0.436,1.0,0.299,0.008
21/08/2023,07:51:21,0.442,1.0,0.306,0.007
21/08/2023,07:52:21,0.446,1.0,0.313,0.007
21/08/2023,07:53:21,0.398,1.0,0.321,0.008
21/08/2023,07:54:21,0.413,1.0,0.327,0.006
21/08/2023,07:55:22,0.449,1.0,0.334,0.007
21/08/2023,07:56:21,0.417,1.0,0.341,0.007
21/08/2023,07:57:21,0.428,1.0,0.349,0.008
21/08/2023,07:58:21,0.399,1.0,0.356,0.007
21/08/2023,07:59:21,0.402,1.0,0.362,0.006
21/08/2023,08:00:22,0.471,1.0,0.37,0.008
21/08/2023,08:01:21,0.511,1.0,0.378,0.008
21/08/2023,08:02:21,0.425,1.0,0.385,0.007
21/08/2023,08:03:21,0.530,1.0,0.394,0.009
21/08/2023,08:04:21,0.538,1.0,0.402,0.008
21/08/2023,08:05:21,0.551,1.0,0.411,0.009
21/08/2023,08:06:21,0.557,1.0,0.421,0.01
21/08/2023,08:07:20,0.562,1.0,0.43,0.009
21/08/2023,08:08:19,0.569,1.0,0.439,0.009
21/08/2023,08:09:21,0.578,1.0,0.449,0.01
21/08/2023,08:10:21,0.586,1.0,0.458,0.009
21/08/2023,08:11:21,0.590,1.0,0.468,0.01
21/08/2023,08:12:21,0.597,1.0,0.479,0.011
21/08/2023,08:13:22,0.590,1.0,0.489,0.01
21/08/2023,08:14:21,0.619,1.0,0.498,0.009
21/08/2023,08:15:22,0.615,1.0,0.509,0.011
21/08/2023,08:16:21,0.622,1.0,0.519,0.01
21/08/2023,08:17:21,0.535,1.0,0.529,0.01
21/08/2023,08:18:22,0.567,1.0,0.539,0.01
21/08/2023,08:19:21,0.507,1.0,0.549,0.01
21/08/2023,08:20:21,0.558,1.0,0.558,0.009
21/08/2023,08:21:21,0.676,2.0,0.568,0.01
21/08/2023,08:22:22,0.619,1.0,0.579,0.011
21/08/2023,08:23:21,0.502,1.0,0.589,0.01
21/08/2023,08:24:21,0.487,1.0,0.597,0.008
21/08/2023,08:25:22,0.480,1.0,0.605,0.008
21/08/2023,08:26:21,0.486,1.0,0.613,0.008
21/08/2023,08:27:24,0.504,1.0,0.622,0.009
21/08/2023,08:28:22,0.503,1.0,0.631,0.009
21/08/2023,08:29:22,0.474,1.0,0.639,0.008
21/08/2023,08:30:21,0.513,1.0,0.647,0.008
21/08/2023,08:31:21,0.498,1.0,0.656,0.009
21/08/2023,08:32:22,0.571,1.0,0.664,0.008
21/08/2023,08:33:21,0.742,2.0,0.675,0.011
21/08/2023,08:34:22,0.722,2.0,0.687,0.012
21/08/2023,08:35:21,0.524,1.0,0.696,0.009
21/08/2023,08:36:21,0.506,1.0,0.704,0.008
21/08/2023,08:37:22,0.519,1.0,0.713,0.009
21/08/2023,08:38:21,0.568,1.0,0.722,0.009
21/08/2023,08:39:21,0.801,2.0,0.733,0.011
21/08/2023,08:40:21,0.822,2.0,0.747,0.014
21/08/2023,08:41:22,0.732,2.0,0.76,0.013
21/08/2023,08:42:21,0.682,2.0,0.77,0.01
21/08/2023,08:43:21,0.596,1.0,0.781,0.011
21/08/2023,08:44:21,0.601,1.0,0.791,0.01
21/08/2023,08:45:22,0.715,2.0,0.802,0.011
21/08/2023,08:46:21,0.829,2.0,0.814,0.012
21/08/2023,08:47:21,0.663,2.0,0.827,0.013
21/08/2023,08:48:22,0.870,2.0,0.84,0.013
21/08/2023,08:49:21,0.627,1.0,0.852,0.012
21/08/2023,08:50:21,0.669,2.0,0.863,0.011
21/08/2023,08:51:22,0.675,2.0,0.875,0.012
21/08/2023,08:52:22,0.830,2.0,0.886,0.011
21/08/2023,08:53:21,0.659,2.0,0.898,0.012
21/08/2023,08:54:22,0.645,1.0,0.91,0.012
21/08/2023,08:55:21,0.616,1.0,0.92,0.01
21/08/2023,08:56:22,0.624,1.0,0.93,0.01
21/08/2023,08:57:21,0.634,1.0,0.94,0.01
21/08/2023,08:58:22,0.613,1.0,0.951,0.011
21/08/2023,08:59:21,0.661,2.0,0.962,0.011
21/08/2023,09:00:21,0.567,1.0,0.972,0.01
21/08/2023,09:01:22,0.558,1.0,0.981,0.009
21/08/2023,09:02:22,0.568,1.0,0.99,0.009
21/08/2023,09:03:21,0.560,1.0,0.999,0.009
21/08/2023,09:04:21,0.550,1.0,1.009,0.01
21/08/2023,09:05:21,0.560,1.0,1.018,0.009
21/08/2023,09:06:22,0.615,1.0,1.028,0.01
21/08/2023,09:07:21,0.677,2.0,1.039,0.011
21/08/2023,09:08:21,1.042,2.0,1.053,0.014
21/08/2023,09:09:21,1.082,2.0,1.07,0.017
21/08/2023,09:10:21,0.923,2.0,1.087,0.017
21/08/2023,09:11:22,0.973,2.0,1.103,0.016
21/08/2023,09:12:22,0.942,2.0,1.118,0.015
21/08/2023,09:13:21,0.946,2.0,1.133,0.015
21/08/2023,09:14:21,0.749,2.0,1.147,0.014
21/08/2023,09:15:22,1.082,2.0,1.16,0.013
21/08/2023,09:16:21,0.757,2.0,1.173,0.013
21/08/2023,09:17:21,1.014,2.0,1.187,0.014
21/08/2023,09:18:22,1.178,3.0,1.205,0.018
21/08/2023,09:19:21,0.853,2.0,1.221,0.016
21/08/2023,09:20:22,0.870,2.0,1.237,0.016
21/08/2023,09:21:21,0.818,2.0,1.25,0.013
21/08/2023,09:22:22,0.844,2.0,1.265,0.015
21/08/2023,09:23:19,0.820,2.0,1.279,0.014
21/08/2023,09:24:20,0.780,2.0,1.292,0.013
21/08/2023,09:25:21,0.755,2.0,1.306,0.014
21/08/2023,09:26:22,0.752,2.0,1.318,0.012
21/08/2023,09:27:21,0.755,2.0,1.33,0.012
21/08/2023,09:28:21,0.769,2.0,1.343,0.013
21/08/2023,09:29:21,0.824,2.0,1.357,0.014
21/08/2023,09:30:22,0.803,2.0,1.371,0.014
21/08/2023,09:31:22,0.806,2.0,1.384,0.013
21/08/2023,09:32:21,0.843,2.0,1.397,0.013
21/08/2023,09:33:21,1.272,3.0,1.416,0.019
21/08/2023,09:34:21,1.277,3.0,1.435,0.019
21/08/2023,09:35:21,1.309,3.0,1.454,0.019
21/08/2023,09:36:21,0.944,2.0,1.472,0.018
21/08/2023,09:37:22,0.971,2.0,1.488,0.016
21/08/2023,09:38:21,1.338,3.0,1.507,0.019
21/08/2023,09:39:22,1.053,2.0,1.527,0.02
21/08/2023,09:40:22,1.059,2.0,1.545,0.018
21/08/2023,09:41:22,1.194,3.0,1.566,0.021
21/08/2023,09:42:21,1.291,3.0,1.584,0.018
21/08/2023,09:43:21,1.129,3.0,1.603,0.019
21/08/2023,09:44:22,1.124,3.0,1.624,0.021
21/08/2023,09:45:22,1.343,3.0,1.642,0.018
21/08/2023,09:46:21,0.933,2.0,1.661,0.019
21/08/2023,09:47:21,0.833,2.0,1.675,0.014
21/08/2023,09:48:21,0.815,2.0,1.689,0.014
21/08/2023,09:49:22,0.830,2.0,1.702,0.013
21/08/2023,09:50:21,0.887,2.0,1.716,0.014
21/08/2023,09:51:21,1.398,3.0,1.736,0.02
21/08/2023,09:52:21,0.936,2.0,1.757,0.021
21/08/2023,09:53:21,1.366,3.0,1.775,0.018
21/08/2023,09:54:21,0.860,2.0,1.792,0.017
21/08/2023,09:55:22,0.842,2.0,1.806,0.014
21/08/2023,09:56:22,0.852,2.0,1.82,0.014
21/08/2023,09:57:21,1.052,2.0,1.836,0.016
21/08/2023,09:58:21,1.004,2.0,1.853,0.017
21/08/2023,09:59:22,0.848,2.0,1.868,0.015
21/08/2023,10:00:21,0.879,2.0,1.882,0.014
21/08/2023,10:01:22,0.887,2.0,1.897,0.015